Live-Position
3D-Globus wird geladen...
Über Starlink 4746
Group: 3 satellites
Beschreibung wird geladen...
Nächste Überflüge
Passes for default location (London). Set your location on the main map for personalized predictions.
Höhenverlauf
Loading altitude history...
No altitude history available
Zweizeiliger Elementsatz
1 53846U 22114AE 26104.45532228 -.00000063 00000-0 14122-4 0 9994
2 53846 53.2154 133.3771 0001213 81.6695 278.4435 15.08838061198376
Epoch: 14. Apr. 2026 •
Age: 8 hours
Aktueller Status
Höhe 559.2 km
Geschwindigkeit 7.58 km/s
Subsatellitenpunkt -53.36°S,
79.44°W
Startdatum 19. Sept. 2022
Alter 3.5 years
Typ internet
Startgruppe
Falcon 9 •
Group 4-34 •
49 satellites
Starlink 4738
53819
Starlink 4758 53820
Starlink 4748 53823
Starlink 4757 53824
Starlink 4751 53825
Starlink 4756 53826
Starlink 4764 53827
Starlink 4760 53828
Starlink 4759 53829
Starlink 4761 53830
Starlink 4649 53831
Starlink 4747 53832
Starlink 4771 53833
Starlink 4737 53834
Starlink 4783 53835
Starlink 4778 53836
Starlink 4776 53837
Starlink 4773 53838
Starlink 4784 53839
Starlink 4766 53840
...and 28 more
Technische Details
Klassifizierung Payload
Masse 305.00 kg
Trockenmasse 290.00 kg
Gesamtmasse 305.00 kg
Länge 0.20 m
Durchmesser 2.80 m
Spannweite 9.00 m
Form Box + pan
Hersteller SPXS
Bus-Typ Starlink
Phasenstatus In Orbit
Besitzer/Staat SPXS/US
Most Searched
Loading...